Погода в Болотнове

Россия / Ивановская область     56°57′50″N   41°52′47″E
темп.,
°C
ветер,
м/с
пор.,
м/с
влажн.,
%
обл.,
%
осадки,
мм/ч
давл.,
гПа
погр.,
м
6 марта, сб
сб600:00−15зсз23920 0.0 101224
03:00−16з34920 0.0 101452
06:00−16з339536 0.0 101452
09:00−13зсз359558 0.0 1015234
12:00−9зсз248462 0.0 1014450
15:00−7з358052 0.0 1013879
18:00−11зсз2392100 0.1 101321
21:00−14зюз229450 0.1 101320
7 марта, вс
вс700:00−15юз23970 0.0 101132
03:00−15ююз36969 0.0 1009106
06:00−13ю5119575 0.0 1005249
09:00−9ю7139387 0.2 1001716
12:00−7ююз71292100 0.8 996859
15:00−5ю71193100 1.9 992873
18:00−5ю51195100 0.9 988616
21:00−4з61295100 2.1 987682
8 марта, пн
пн800:00−8з81488100 2.6 988755
03:00−10з71584100 2.7 990566
06:00−12зюз51188100 0.0 991364
09:00−12з5991100 0.0 992349
12:00−9зсз4792100 0.1 995464
15:00−8ссз5889100 0.5 998736
18:00−10ссз4991100 0.2 1001510
21:00−12ссз4109395 0.3 1005366
9 марта, вт
вт900:00−16ссз479577 0.0 1007153
03:00−20сз479754 0.0 1010124
06:00−23ссз379730 0.0 1012135
09:00−21ссз479421 0.0 1013268
12:00−17сз469068 0.0 1014440
15:00−16сз578984 0.0 1016528
18:00−19сз3795100 0.0 1016192
21:00−22ссз359899 0.1 101998
10 марта, ср
ср1000:00−25ссз349975 0.0 102073
03:00−27ссз349737 0.0 102168
06:00−29ссз34980 0.0 102373
09:00−26с35950 0.0 1024236
12:00−20ссз358526 0.0 1024488
15:00−17сз358233 0.0 1024624
18:00−21зсз349343 0.0 102450
21:00−22зсз349421 0.0 102571